ONEWEB-0676, 56712

Orbit data source: Space-Track

ONEWEB-0676, 56712 is a payload satellite owned by One Web (NAA) (UK) in LEO that was launched on Sat, 20 May 2023 UTC via an FALCON 9 launch vehicle from the Air Force Western Test Range (AFWTR). Payloads include a variety of satellites, spacecraft, and rockets equipped with specific instruments for various scientific and technological missions. These include communications satellites like Starlink; space stations such as the ISS; scientific satellites like the Hubble; Earth observation satellites from companies like Planet Labs, Umbra, and HawkEye 360; GPS; miniature CubeSats for education and research; and military/defense satellites.

Loading next visibility...
ONEWEB-0676 details
Identifier
56712, 2023-068C
Orbit
LEO
Last TLE update18 hours ago
Origin
Flag of UKOne Web (NAA) (UK)
ManufacturerOne Web
MissionOperational Commercial Communications
Bus & MotorARROW, Unknown motor
Mass148 kg wet, ~140 kg dry
Launch date (UTC)
2023-05-20 (2 years ago)
Launch vehicle
FALCON 9
Launch site
Air Force Western Test Range (AFWTR)
Object type
Payload
Rocket body
Debris
Shape & HBRTrap Box + 2 Pan, 5 m
Radar Cross Section2.032 m², Large (>1 m²)

Expand to show TLE details & history

TLE from 18 hours ago
0 ONEWEB-0676
1 56712U 23068C   25014.90958481  .00000021  00000-0  20374-4 0  9999
2 56712  87.9109 332.0500 0001425  67.2792 292.8489 13.16593516 84201
Epoch: 2025-01-14T21:49Z
Definitive object data (Epoch: 2025-01-14T21:49:48.127Z)
Latitude-0.00007°
Longitude-110.01005°
Altitude1,200.237 km
Speed7.254 km/s
True Right ascension22h 08m 11s
True Declination0° 00' 00"
Sunlit
Object was in daylight at TLE epoch
Visualization TLE readout
Latitude-60.62012°
Longitude-113.85449°
Altitude1,221.811 km
Speed7.243 km/s
Apparent Right ascension01h 45m 13s
Apparent Declination-61° 51' 28"
Sunlit
Object is in daylight
Visualization observer readout
Local Sidereal Time16:26:38
Azimuth145.578° SSE
Elevation-57.296°
Doppler factor1
Orbital elements
Apogee altitude1,195.949 km
Perigee altitude1,193.791 km
Semi-major axis7,573.007 km
Eccentricity0.0001425
Inclination87.9109°
RAAN332.05°
Arg. of periapsis67.2792°
True anomaly292.83385°
Mean anomaly292.8489°
Eccentric anomaly292.84138°
Mean motion3.29337 °/min
BSTAR0.000020374
Orbital period109.31 mins
Loading maneuver chart data...
Loading historical data...
Loading historical data...
Loading historical data...
Loading historical data...
Loading historical data...
Loading historical data...
Loading historical data...

ONEWEB-0676 Visibility forecast

Observer location: undefined°, undefined

Span
Click to sort rows by Start time (UTC) header in descending order
Start Az.
Max El. time (UTC)
Max El. Az.
Max El.
End time (UTC)
End Az.
8 mins2025-01-15 19:51:44.176Z111.274° ESE2025-01-15 19:55:44.176Z75.945° E17.652°2025-01-15 19:59:44.176Z38.988° NE
13 mins2025-01-15 21:38:44.176Z187.124° SSW2025-01-15 21:44:44.176Z283.998° WNW44.039°2025-01-15 21:51:44.176Z357.336° N
4 mins2025-01-16 07:19:44.176Z59.136° ENE2025-01-16 07:20:44.176Z67.933° E13.068°2025-01-16 07:23:44.176Z93.723° ESE
13 mins2025-01-16 09:05:44.176Z1.363° NNE2025-01-16 09:11:44.176Z114.523° SE44.832°2025-01-16 09:18:44.176Z178.773° S
6 mins2025-01-16 10:57:44.176Z309.492° NW2025-01-16 10:59:44.176Z291.127° WNW15.586°2025-01-16 11:03:44.176Z255.868° W
|